Greenwood, SC

5:49 PM EDT on October 20, 2017 (GMT -0400)
Greenwood County

Weather History for KGRD - March, 2012

Change the Weather History Date:

Wednesday, March 14, 2012

  Actual Average (KAND) Record (KAND)
Temperature  
Mean Temperature 70 °F -  
Max Temperature 82 °F 66 °F 83 °F (1967)
Min Temperature 57 °F 42 °F 22 °F (1993)
Cooling Degree Days 4    
Growing Degree Days 20 (Base 50)    
Moisture  
Dew Point 56 °F    
Average Humidity 77    
Maximum Humidity 100    
Minimum Humidity 28    
Precipitation  
Precipitation 0.00 in - - ()
Sea Level Pressure  
Sea Level Pressure 30.21 in    
Wind  
Wind Speed 5 mph (WSW)    
Max Wind Speed 7 mph    
Max Gust Speed -    
Visibility 6 miles    
Events Fog    
Averages and records for this station are not official NWS values.
T = Trace of Precipitation, MM = Missing Value Source: NWS Daily Summary

Daily Weather History Graph

Daily Weather History Graph

Search for Another Location

Airport or City:

Trip Planner

Search our weather history database for the weather conditions in past years. The results will help you decide how hot, cold, wet, or windy it might be!

Date:

Astronomy

Mar. 14, 2012 Rise Set
Actual Time 7:39 AM EDT 7:35 PM EDT
Civil Twilight 7:14 AM EDT 8:00 PM EDT
Nautical Twilight 6:45 AM EDT 8:30 PM EDT
Astronomical Twilight 6:16 AM EDT 8:59 PM EDT
Moon 1:52 AM EDT (3/14) 12:06 PM EDT (3/14)
Length of Visible Light 12h 46m
Length of Day
11h 56m
Waning Gibbous, 54% of the Moon is Illuminated
Mar 14
Waning Gibbous
Mar 14
Last Quarter
Mar 22
New
Mar 30
First Quarter
Apr 6
Full

Hourly Weather History & Observations

Time (EDT) Temp. Dew Point Humidity Pressure Visibility Wind Dir Wind Speed Gust Speed Precip Events Conditions
12:56 AM 63.0 °F 61.0 °F 93% 30.22 in 10.0 mi SSW 5.8 mph - N/A   Clear
1:56 AM 62.1 °F 61.0 °F 96% 30.21 in 8.0 mi SSW 6.9 mph - N/A   Clear
2:56 AM 61.0 °F 60.1 °F 97% 30.20 in 7.0 mi SW 6.9 mph - N/A   Clear
3:56 AM 60.1 °F 59.0 °F 96% 30.19 in 4.0 mi WSW 4.6 mph - N/A   Partly Cloudy
4:13 AM 60.8 °F 60.8 °F 100% 30.20 in 2.5 mi WSW 4.6 mph - N/A   Mostly Cloudy
4:23 AM 60.8 °F 60.8 °F 100% 30.19 in 0.8 mi WSW 5.8 mph - N/A   Overcast
4:39 AM 60.8 °F 60.8 °F 100% 30.19 in 0.2 mi WSW 5.8 mph - N/A Fog Fog
4:56 AM 60.1 °F 60.1 °F 100% 30.18 in 0.5 mi WSW 5.8 mph - N/A Fog Fog
5:45 AM 59.0 °F 59.0 °F 100% 30.20 in 1.2 mi WSW 4.6 mph - N/A   Overcast
5:56 AM 59.0 °F 59.0 °F 100% 30.19 in 2.5 mi WSW 5.8 mph - N/A   Overcast
6:04 AM 59.0 °F 59.0 °F 100% 30.20 in 4.0 mi WSW 4.6 mph - N/A   Mostly Cloudy
6:13 AM 59.0 °F 59.0 °F 100% 30.20 in 6.0 mi WSW 4.6 mph - N/A   Scattered Clouds
6:56 AM 59.0 °F 57.9 °F 96% 30.20 in 5.0 mi West 3.5 mph - N/A   Clear
7:05 AM 59.0 °F 59.0 °F 100% 30.22 in 4.0 mi West 4.6 mph - N/A   Scattered Clouds
7:10 AM 59.0 °F 57.2 °F 94% 30.22 in 2.0 mi West 4.6 mph - N/A   Mostly Cloudy
7:16 AM 59.0 °F 57.2 °F 94% 30.22 in 0.8 mi West 3.5 mph - N/A   Mist
7:48 AM 57.2 °F 57.2 °F 100% 30.23 in 0.2 mi West 3.5 mph - N/A Fog Fog
8:56 AM 57.9 °F 57.9 °F 100% 30.25 in 0.2 mi Calm Calm - N/A Fog Fog
9:56 AM - - N/A% 30.28 in - North - - N/A   Unknown
11:56 AM 72.0 °F 57.9 °F 61% 30.27 in 10.0 mi Calm Calm - N/A   Clear
12:56 PM 78.1 °F 55.9 °F 46% 30.26 in 10.0 mi Calm Calm - N/A   Clear
1:56 PM 80.1 °F 51.1 °F 36% 30.24 in 10.0 mi Calm Calm - N/A   Clear
2:56 PM 79.0 °F 50.0 °F 36% 30.20 in 10.0 mi Calm Calm - N/A   Scattered Clouds
3:56 PM 79.0 °F 50.0 °F 36% 30.19 in 10.0 mi ESE 5.8 mph - N/A   Partly Cloudy
4:56 PM 82.0 °F 46.0 °F 28% 30.18 in 10.0 mi NW 3.5 mph - N/A   Clear
5:56 PM 82.0 °F 46.0 °F 28% 30.17 in 10.0 mi Calm Calm - N/A   Clear
6:56 PM 80.1 °F 48.0 °F 32% 30.17 in 10.0 mi Calm Calm - N/A   Clear
8:56 PM 70.0 °F 48.9 °F 47% 30.20 in 10.0 mi SSE 3.5 mph - N/A   Clear
10:56 PM 64.0 °F 50.0 °F 60% 30.25 in 10.0 mi SSW 3.5 mph - N/A   Clear
11:56 PM 61.0 °F 51.1 °F 70% 30.23 in 10.0 mi South 4.6 mph - N/A   Clear